Marysville, OH

3:52 PM EDT on September 30, 2016 (GMT -0400)
Marysville

Weather History for KMRT - January, 2013

Change the Weather History Date:

Saturday, January 12, 2013

  Actual Average (KDLZ) Record (KDLZ)
Temperature  
Mean Temperature 50 °F -  
Max Temperature 61 °F 30 °F 60 °F (2013)
Min Temperature 40 °F 13 °F -9 °F (1979)
Degree Days  
Heating Degree Days 14    
Moisture  
Dew Point 50 °F    
Average Humidity 90    
Maximum Humidity 95    
Minimum Humidity 77    
Precipitation  
Precipitation 0.01 in - - ()
Sea Level Pressure  
Sea Level Pressure 29.96 in    
Wind  
Wind Speed 8 mph (SSW)    
Max Wind Speed 16 mph    
Max Gust Speed 22 mph    
Visibility 6 miles    
Events      
Averages and records for this station are not official NWS values.
T = Trace of Precipitation, MM = Missing Value Source: NWS Daily Summary

Daily Weather History Graph

Daily Weather History Graph

Search for Another Location

Airport or City:

Trip Planner

Search our weather history database for the weather conditions in past years. The results will help you decide how hot, cold, wet, or windy it might be!

Date:

Astronomy

Jan. 12, 2013 Rise Set
Actual Time 7:54 AM EST 5:29 PM EST
Civil Twilight 7:24 AM EST 5:59 PM EST
Nautical Twilight 6:51 AM EST 6:32 PM EST
Astronomical Twilight 6:18 AM EST 7:05 PM EST
Moon 8:12 AM EST (1/12) 6:56 PM EST (1/12)
Length of Visible Light 10h 34m
Length of Day
9h 34m
New Moon, 1% of the Moon is Illuminated
Jan 12
New Moon
Jan 18
First Quarter
Jan 26
Full
Feb 3
Last Quarter
Feb 10
New

Hourly Weather History & Observations

Time (EST) Temp. Windchill Dew Point Humidity Pressure Visibility Wind Dir Wind Speed Gust Speed Precip Events Conditions
12:14 AM 47.3 °F - 43.5 °F 87% 29.94 in 10.0 mi SSW 10.4 mph - N/A   Clear
12:34 AM 47.3 °F - 43.2 °F 86% 29.94 in 10.0 mi SSW 10.4 mph - N/A   Clear
12:54 AM 46.6 °F - 42.8 °F 87% 29.94 in 10.0 mi South 9.2 mph - N/A   Clear
1:14 AM 45.9 °F 41.7 °F 42.4 °F 88% 29.93 in 10.0 mi SSW 8.1 mph - N/A   Clear
1:34 AM 46.4 °F 41.9 °F 42.4 °F 86% 29.93 in 10.0 mi SSW 9.2 mph - N/A   Clear
1:54 AM 47.1 °F - 43.2 °F 86% 29.93 in 10.0 mi SSW 9.2 mph - N/A   Clear
2:14 AM 46.6 °F - 43.2 °F 88% 29.94 in 10.0 mi SSW 8.1 mph - N/A   Clear
2:34 AM 46.4 °F 42.4 °F 43.2 °F 88% 29.95 in 10.0 mi SSW 8.1 mph - N/A   Clear
2:54 AM 45.9 °F 41.7 °F 43.3 °F 91% 29.95 in 10.0 mi SSW 8.1 mph - N/A   Clear
3:14 AM 45.7 °F 41.0 °F 43.7 °F 93% 29.96 in 10.0 mi SSW 9.2 mph - N/A   Clear
3:34 AM 45.1 °F 42.0 °F 43.0 °F 92% 29.96 in 7.0 mi SSW 5.8 mph - N/A   Clear
3:54 AM 45.0 °F 41.8 °F 43.2 °F 93% 29.96 in 5.0 mi SSW 5.8 mph - N/A   Clear
4:14 AM 43.3 °F 41.7 °F 41.7 °F 94% 29.96 in 3.0 mi SSW 3.5 mph - N/A   Clear
4:34 AM 43.0 °F 40.3 °F 41.4 °F 94% 29.97 in 2.5 mi SSW 4.6 mph - N/A   Scattered Clouds
4:54 AM 46.2 °F 42.7 °F 44.6 °F 94% 29.96 in 5.0 mi SSW 6.9 mph - N/A   Scattered Clouds
5:14 AM 43.5 °F 40.1 °F 42.1 °F 95% 29.96 in 2.5 mi SSW 5.8 mph - N/A   Scattered Clouds
5:34 AM 43.3 °F 41.7 °F 41.9 °F 95% 29.96 in 1.5 mi SSW 3.5 mph - N/A   Scattered Clouds
5:54 AM 40.8 °F 38.8 °F 39.6 °F 95% 29.97 in 0.2 mi SSW 3.5 mph - N/A   Unknown
6:14 AM 41.4 °F 36.8 °F 40.1 °F 95% 29.96 in 0.2 mi SSW 6.9 mph - N/A   Overcast
6:34 AM 46.0 °F 41.0 °F 44.6 °F 95% 29.97 in 1.0 mi SSW 10.4 mph - N/A   Mostly Cloudy
6:54 AM 47.3 °F - 45.7 °F 94% 29.98 in 1.2 mi SW 10.4 mph - N/A   Mostly Cloudy
7:14 AM 48.4 °F - 46.9 °F 95% 29.98 in 3.0 mi SSW 9.2 mph - N/A   Mostly Cloudy
7:34 AM 48.6 °F - 47.3 °F 95% 29.99 in 1.2 mi SSW 9.2 mph - N/A   Overcast
7:54 AM 49.1 °F - 47.7 °F 95% 30.00 in 3.0 mi South 8.1 mph - N/A   Overcast
8:14 AM 49.5 °F - 48.0 °F 95% 30.01 in 2.5 mi SSW 8.1 mph - N/A   Mostly Cloudy
8:34 AM 50.0 °F - 48.6 °F 95% 30.01 in 3.0 mi SSW 9.2 mph - N/A   Mostly Cloudy
8:54 AM 50.4 °F - 49.1 °F 95% 30.02 in 3.0 mi SSW 9.2 mph - N/A   Scattered Clouds
9:14 AM 50.0 °F - 48.4 °F 94% 30.03 in 2.5 mi SSW 8.1 mph - N/A   Scattered Clouds
9:34 AM 51.1 °F - 49.6 °F 95% 30.03 in 3.0 mi SSW 9.2 mph - N/A   Overcast
9:54 AM 51.8 °F - 50.4 °F 95% 30.03 in 4.0 mi SSW 9.2 mph - N/A   Overcast
10:14 AM 52.2 °F - 50.7 °F 95% 30.03 in 4.0 mi South 8.1 mph - N/A   Overcast
10:54 AM 52.7 °F - 50.9 °F 94% 30.03 in 4.0 mi South 5.8 mph - N/A   Overcast
11:14 AM 53.2 °F - 51.4 °F 94% 30.02 in 4.0 mi South 6.9 mph - N/A   Overcast
11:34 AM 53.6 °F - 51.4 °F 92% 30.02 in 4.0 mi South 5.8 mph - N/A   Overcast
11:54 AM 54.5 °F - 52.2 °F 92% 30.02 in 4.0 mi SSW 5.8 mph - N/A   Overcast
12:14 PM 55.9 °F - 52.7 °F 89% 30.00 in 7.0 mi SSW 4.6 mph - N/A   Overcast
12:55 PM 56.3 °F - 53.2 °F 89% 30.00 in 7.0 mi South 5.8 mph - N/A   Overcast
1:14 PM 57.0 °F - 53.6 °F 88% 30.00 in 7.0 mi South 4.6 mph - N/A   Mostly Cloudy
1:34 PM 58.1 °F - 54.1 °F 87% 30.00 in 7.0 mi South 8.1 mph - N/A   Scattered Clouds
1:55 PM 59.2 °F - 53.8 °F 82% 30.00 in 7.0 mi SSW 10.4 mph - N/A   Mostly Cloudy
2:34 PM 59.5 °F - 53.4 °F 80% 30.00 in 10.0 mi SSW 9.2 mph - N/A   Clear
2:55 PM 60.4 °F - 54.1 °F 80% 30.00 in 10.0 mi SW 6.9 mph - N/A   Clear
3:14 PM 61.5 °F - 54.1 °F 77% 29.99 in 10.0 mi SSW 9.2 mph - N/A   Clear
3:34 PM 61.7 °F - 54.5 °F 77% 29.98 in 10.0 mi SSW 10.4 mph - N/A   Clear
3:55 PM 60.8 °F - 54.3 °F 79% 30.00 in 10.0 mi SSW 8.1 mph - N/A   Clear
4:14 PM 60.1 °F - 53.8 °F 80% 29.99 in 10.0 mi SSW 8.1 mph - N/A   Clear
4:34 PM 59.4 °F - 53.6 °F 81% 29.98 in 10.0 mi SSW 8.1 mph - N/A   Clear
4:55 PM 58.1 °F - 53.8 °F 86% 29.98 in 10.0 mi South 6.9 mph - N/A   Clear
5:14 PM 57.6 °F - 53.6 °F 87% 29.97 in 7.0 mi South 5.8 mph - N/A   Clear
5:34 PM 56.8 °F - 53.2 °F 88% 29.97 in 7.0 mi South 3.5 mph - N/A   Mostly Cloudy
5:55 PM 55.9 °F - 53.4 °F 91% 29.96 in 7.0 mi Calm Calm - N/A   Mostly Cloudy
6:14 PM 55.2 °F - 52.0 °F 89% 29.96 in 7.0 mi South 5.8 mph - N/A   Mostly Cloudy
6:34 PM 55.2 °F - 52.7 °F 91% 29.96 in 5.0 mi South 3.5 mph - N/A   Mostly Cloudy
6:55 PM 55.4 °F - 52.9 °F 91% 29.95 in 7.0 mi South 5.8 mph - N/A   Overcast
7:14 PM 57.2 °F - 54.0 °F 89% 29.95 in 7.0 mi South 5.8 mph - N/A   Overcast
7:34 PM 57.4 °F - 54.9 °F 91% 29.93 in 7.0 mi South 3.5 mph - N/A   Overcast
7:54 PM 57.6 °F - 55.4 °F 92% 29.92 in 5.0 mi Calm Calm - N/A   Overcast
8:14 PM 57.6 °F - 55.4 °F 92% 29.92 in 4.0 mi Calm Calm - N/A   Overcast
8:34 PM 57.9 °F - 55.9 °F 93% 29.91 in 1.8 mi South 4.6 mph - N/A   Overcast
8:54 PM 58.5 °F - 56.7 °F 94% 29.89 in 2.5 mi South 5.8 mph - N/A   Overcast
9:14 PM 59.0 °F - 57.4 °F 94% 29.89 in 1.5 mi South 6.9 mph - N/A   Overcast
9:34 PM 59.2 °F - 57.6 °F 94% 29.86 in 1.0 mi SSE 5.8 mph - N/A   Overcast
9:54 PM 59.2 °F - 57.6 °F 94% 29.87 in 2.0 mi South 8.1 mph - N/A   Overcast
10:14 PM 59.7 °F - 58.1 °F 94% 29.86 in 4.0 mi South 10.4 mph - N/A   Overcast
10:34 PM 60.1 °F - 58.5 °F 94% 29.85 in 3.0 mi South 15.0 mph 19.6 mph 0.01 in   Overcast
10:54 PM 60.4 °F - 58.8 °F 94% 29.85 in 10.0 mi South 13.8 mph 21.9 mph 0.01 in   Overcast
11:14 PM 60.6 °F - 58.6 °F 93% 29.84 in 7.0 mi South 13.8 mph 18.4 mph N/A   Overcast
11:34 PM 60.4 °F - 58.3 °F 93% 29.84 in 7.0 mi SSW 13.8 mph 17.3 mph N/A   Overcast
11:54 PM 60.8 °F - 58.5 °F 92% 29.83 in 10.0 mi South 16.1 mph 21.9 mph N/A   Overcast